RH
23 24 26 28 32 34 36 37 38 41 64 78 82 59 66 61 69 81 95 96 89 90 94 94 94 95 92 87 99 97 95 82 86 84 76 80 85 83 81 74 57 38 36
22 26 30 31 31 33 36 36 36 38 40 56 72 57 43 47 57 57 58 64 78 69 60 80 90 95 92 95 96 98 100 90 79 76 77 79 79 84 82 76 65 43 39
29 28 29 31 31 31 33 35 37 37 37 38 50 72 75 94 69 46 52 54 59 84 79 62 76 92 98 92 91 89 97 83 82 77 79 80 74 65 64 72 70 50 46
35 38 42 41 37 32 30 30 32 37 37 35 39 51 72 82 84 78 61 55 55 50 60 86 80 76 90 99 88 93 83 86 82 80 79 82 70 67 60 62 61 58 52
40 45 50 51 48 33 29 26 26 28 32 34 35 46 59 71 83 85 90 83 79 54 46 52 61 69 80 75 84 96 100 89 85 73 81 84 85 73 56 54 56 52 48
45 47 54 55 60 40 36 34 34 30 29 29 30 32 45 71 82 83 86 89 90 91 82 51 46 52 63 78 67 64 97 100 98 87 87 87 82 85 86 74 66 61 60
51 52 55 56 61 56 46 44 42 42 34 31 30 31 34 52 77 83 87 89 90 91 99 82 69 62 70 100 96 92 86 86 100 96 88 94 99 92 90 91 80 65 65
57 61 64 65 63 68 59 50 46 45 38 37 37 38 40 40 49 72 87 91 92 95 92 79 63 56 62 84 100 100 100 100 100 100 100 100 100 100 98 93 82 74 63
62 65 66 69 70 74 76 61 57 56 50 45 38 41 46 37 36 37 51 79 86 97 97 83 76 57 79 90 91 100 100 100 100 100 100 99 100 100 100 98 92 94 86
64 64 66 71 78 79 72 70 66 63 58 56 52 45 42 40 36 35 37 42 54 56 42 33 38 42 48 74 99 99 100 99 99 100 100 100 100 100 100 100 100 91 98
65 66 71 78 83 78 75 72 68 66 66 62 58 55 51 48 45 41 39 36 36 35 34 33 34 36 39 54 96 99 99 100 100 100 100 100 100 98 100 98 99 95 92
68 75 83 81 79 80 74 73 73 72 70 71 70 63 62 61 56 52 47 44 42 40 39 40 41 48 66 95 99 99 98 98 99 100 100 100 100 100 98 90 78 76 78
67 70 74 76 77 77 77 73 69 70 70 74 79 69 66 62 60 57 55 52 52 54 62 75 86 96 99 99 100 99 100 100 100 100 100 100 96 85 60 69 89 94 99
66 67 70 75 78 74 73 71 73 76 77 79 82 80 76 72 70 69 73 79 86 93 98 98 98 98 98 99 98 100 100 99 99 98 89 79 73 75 84 98 100 99 100
66 67 73 76 76 76 72 74 79 79 79 82 84 86 86 89 90 92 96 95 97 93 96 99 99 99 99 100 100 100 100 98 89 78 76 85 90 98 100 99 98 73 27
69 68 78 77 76 80 78 83 85 82 83 85 81 86 95 95 96 95 97 92 95 98 98 99 98 97 96 95 90 83 80 78 84 95 100 100 100 100 98 72 20 16 15
69 69 77 83 84 88 83 86 85 80 83 82 82 89 95 94 92 94 95 94 96 98 95 92 91 93 96 97 95 98 100 100 99 99 99 95 55 28 20 17 14 15 20
71 71 81 86 84 95 85 85 85 85 85 88 88 89 92 92 90 93 94 90 91 92 92 96 98 100 99 100 97 98 99 99 98 93 73 30 20 16 14 16 31 40 42
71 74 83 89 86 94 83 82 89 90 90 92 92 94 96 91 89 88 89 92 93 98 100 100 100 96 96 100 98 86 43 28 24 20 19 18 18 18 17 30 54 45 65
77 84 84 85 86 84 82 85 90 93 94 94 95 91 88 87 87 92 98 94 95 95 97 94 65 31 25 23 20 19 30 46 36 27 22 20 23 20 19 22 31 46 39
84 83 86 83 80 79 80 86 93 93 92 94 91 89 87 88 89 92 99 98 100 87 41 31 34 43 29 20 16 16 18 21 22 26 29 27 22 20 19 19 23 30 38
95 83 80 81 78 78 81 84 91 93 94 94 94 94 94 93 94 92 78 48 33 27 24 22 21 19 19 19 19 17 18 17 21 25 25 26 22 22 24 27 31 43 59
96 81 82 83 84 82 82 89 97 98 100 99 93 96 96 66 38 36 34 27 24 24 21 19 20 20 21 23 23 25 23 22 24 26 28 28 27 29 31 40 57 64 65
98 95 97 84 91 92 94 98 100 100 99 100 96 68 34 33 35 33 27 22 21 20 20 20 22 23 26 36 56 60 68 57 53 40 32 29 31 36 52 65 66 67 69
98 86 92 95 87 92 99 100 100 99 100 90 43 31 32 34 32 25 23 20 18 18 18 15 14 18 37 31 22 26 31 35 35 32 31 34 40 56 73 72 71 71 71
91 86 95 87 86 94 98 97 98 98 79 34 28 28 32 34 28 22 19 18 18 14 11 12 14 15 19 22 26 29 31 32 31 32 35 42 54 71 71 70 71 72 74
Wind_Speed
16 16 17 18 18 19 21 21 21 21 20 20 27 26 30 28 27 26 21 22 23 23 25 26 23 24 25 28 28 24 24 24 20 18 21 21 23 23 22 21 21 21 20
17 15 16 16 18 19 20 23 23 22 23 23 25 30 27 30 33 34 34 33 30 30 30 28 29 28 29 27 28 29 28 27 28 28 20 12 21 27 27 25 24 23 23
13 14 14 14 18 20 20 20 21 23 25 25 24 26 23 20 27 33 37 40 38 35 35 34 34 32 31 32 32 31 34 34 33 33 23 10 13 13 19 27 27 24 25
5 3 2 2 9 15 22 27 27 26 27 28 28 26 26 27 27 28 32 35 38 38 37 38 38 35 34 35 36 35 36 36 37 34 35 30 16 10 9 17 24 24 25
4 4 4 4 3 0 5 12 20 26 28 28 30 25 27 26 24 24 24 27 29 33 34 36 36 38 37 38 39 38 40 42 39 40 38 39 38 29 19 12 17 21 24
5 5 5 5 5 5 4 3 1 7 16 24 28 28 28 22 23 22 23 22 25 28 33 33 34 33 38 38 40 41 42 44 42 43 42 42 42 45 42 31 23 23 25
5 4 3 2 3 3 4 3 3 3 3 7 14 21 25 24 22 21 22 21 24 28 27 29 30 30 31 35 38 39 42 45 44 45 45 45 43 43 40 36 34 26 26
3 3 3 3 3 5 4 4 3 4 4 5 6 8 15 21 24 20 20 19 20 20 24 27 27 26 26 28 32 35 37 41 42 40 43 45 46 45 41 37 34 32 27
2 3 4 4 3 4 5 6 6 7 8 8 9 8 7 10 12 15 18 18 20 21 23 23 24 23 23 24 25 30 34 38 38 36 39 43 43 40 39 43 38 27 20
1 3 4 4 3 3 5 5 6 7 8 9 11 12 14 14 14 14 14 16 15 17 21 21 24 25 24 23 23 25 28 30 33 36 35 36 37 38 38 32 30 25 19
1 3 3 2 3 3 4 5 6 7 8 7 7 7 8 10 12 13 14 15 16 18 19 21 23 24 25 23 22 22 24 26 28 30 31 30 30 30 25 22 16 14 14
1 1 1 2 3 3 3 3 4 5 6 6 5 3 2 3 5 7 9 11 13 16 18 20 22 23 22 21 19 20 22 23 25 25 25 24 21 17 14 11 11 9 13
2 1 1 1 2 1 2 3 4 5 5 4 4 5 4 4 4 5 7 10 12 14 16 17 18 17 15 16 17 19 19 19 20 18 17 16 14 9 7 6 13 11 12
4 4 3 2 1 1 2 3 4 4 4 4 3 3 3 5 6 7 8 10 12 12 11 11 12 12 13 13 14 13 13 14 13 12 10 10 10 9 9 10 11 10 10
5 5 5 3 2 1 2 3 3 4 4 4 3 4 4 3 3 3 4 6 6 6 6 7 7 7 7 5 5 5 8 9 10 9 8 9 8 8 8 8 8 8 7
7 6 5 4 2 0 1 0 2 3 4 3 2 2 1 1 3 4 3 4 5 6 6 5 3 1 3 7 8 6 7 7 6 6 9 8 7 7 6 4 7 8 8
7 7 7 6 5 3 3 3 2 1 3 3 2 2 4 7 8 7 8 9 9 8 9 9 7 7 9 8 8 8 6 8 7 6 4 2 2 2 3 5 7 9 8
8 7 7 6 6 4 4 3 2 2 3 4 5 5 7 8 10 10 13 14 13 12 13 12 9 9 10 7 6 5 2 2 2 3 4 3 4 5 6 6 8 9 10
6 6 6 7 7 7 4 3 3 4 5 5 7 8 9 13 13 14 16 15 13 14 14 13 11 9 9 6 5 6 5 3 1 1 3 5 7 7 7 7 9 9 8
6 7 8 8 7 6 5 5 5 6 8 8 11 13 15 16 16 17 18 16 14 13 11 10 10 10 9 8 6 5 7 6 6 6 8 7 8 9 10 9 8 10 8
7 9 9 7 7 6 7 7 9 11 12 14 16 17 18 18 17 16 15 12 10 10 10 9 9 7 6 5 5 5 5 6 7 7 9 10 10 11 10 9 8 8 7
8 9 8 8 8 8 9 11 13 15 16 18 18 18 18 16 14 12 12 11 10 8 7 5 4 4 5 7 9 9 9 9 8 9 10 11 10 10 8 6 5 5 6
8 9 10 10 9 9 12 15 18 18 19 19 17 16 15 15 13 11 10 9 7 4 3 3 4 5 6 8 8 10 11 11 10 10 11 10 9 7 6 4 5 6 7
10 11 10 11 12 15 16 18 21 21 18 16 15 15 13 12 10 9 8 5 4 2 2 3 4 6 7 8 9 11 11 12 9 10 9 9 7 6 4 4 5 7 9
11 13 13 13 17 19 20 22 22 19 16 15 15 13 12 10 9 8 6 3 1 1 3 4 6 6 7 10 11 11 11 11 11 10 9 7 6 4 5 6 8 9 10
13 14 15 17 20 22 22 22 20 17 16 15 13 12 10 9 7 5 4 1 1 3 4 6 8 9 10 11 12 12 12 11 10 9 7 6 6 6 7 8 9 11 12
Wind_Direction
245 242 239 238 238 236 233 232 231 229 226 227 248 244 243 247 242 238 233 235 235 237 238 239 230 225 222 242 228 224 226 225 217 223 235 238 246 249 249 248 245 243 248
246 246 253 247 241 240 240 235 232 232 231 228 243 256 252 248 247 252 250 247 249 251 254 246 241 234 235 226 243 221 228 233 225 224 233 243 251 249 248 245 241 243 248
253 253 256 255 246 239 236 236 238 235 235 232 230 252 253 251 256 253 254 254 250 246 251 253 247 239 235 237 236 240 230 236 235 231 220 214 227 250 248 241 241 236 241
197 211 244 261 246 236 235 234 229 232 237 235 230 230 238 239 246 255 257 257 257 254 251 251 252 250 244 239 243 238 245 240 239 239 234 226 219 209 223 240 235 233 232
132 113 91 78 63 54 252 250 249 246 242 236 235 232 234 241 246 249 257 257 265 264 255 255 253 255 252 251 250 242 237 246 243 247 241 235 234 234 226 228 235 233 234
115 98 82 73 60 61 62 55 346 255 247 242 242 240 234 239 245 247 249 252 256 260 264 261 262 255 253 253 258 260 248 247 247 248 249 247 241 239 239 238 244 245 245
105 93 78 63 42 35 40 37 36 348 299 261 250 245 243 239 241 245 250 256 255 258 260 266 269 268 260 251 254 257 258 258 252 249 252 253 249 251 254 250 244 235 240
89 62 35 25 5 357 334 316 307 296 274 262 258 248 242 242 242 247 248 252 259 262 271 271 273 274 271 262 257 255 256 252 259 257 250 250 251 250 248 249 245 235 231
64 18 9 8 358 338 324 308 298 284 275 270 257 253 264 258 254 249 247 250 250 250 251 265 272 272 270 269 267 264 260 256 257 256 250 251 253 254 249 245 245 247 248
28 354 352 352 348 330 307 310 300 301 298 284 269 256 249 250 251 252 250 249 253 256 264 269 269 272 273 269 265 264 264 261 260 259 256 254 254 252 249 251 246 248 261
338 339 345 7 357 340 327 328 319 311 304 309 303 282 269 263 260 261 262 264 269 272 275 277 279 279 277 274 268 266 265 265 263 259 255 249 248 251 249 255 266 257 254
276 325 49 51 30 8 353 341 345 335 321 297 298 297 267 247 247 256 260 262 265 269 272 275 278 279 283 282 275 268 268 268 262 255 245 238 236 240 247 248 262 256 264
208 191 163 100 78 14 7 9 353 343 334 332 283 272 278 283 273 272 279 286 289 289 286 287 287 285 278 274 270 265 257 253 248 241 231 224 221 231 229 249 242 261 261
200 190 183 159 92 265 317 353 348 360 357 351 353 329 287 274 273 280 297 302 303 305 311 307 298 293 287 275 266 259 246 226 204 195 197 202 206 213 228 241 258 261 266
204 200 192 174 152 281 321 333 7 33 34 28 13 351 337 331 340 339 342 335 316 309 305 305 299 287 280 277 259 226 188 180 179 175 187 206 217 229 242 253 266 281 286
199 199 196 176 162 174 282 315 76 58 59 71 17 6 332 88 70 53 35 25 8 5 7 4 17 56 96 105 112 124 146 148 160 185 213 224 228 225 244 316 283 285 291
193 198 196 188 184 181 179 173 130 73 71 71 71 70 78 82 84 77 71 70 68 68 72 78 81 106 120 121 127 142 168 163 163 185 196 276 321 337 284 285 288 290 288
184 188 187 189 188 170 180 182 154 126 95 93 102 102 98 97 88 91 86 84 83 89 92 94 96 106 104 104 109 115 154 155 100 40 2 266 297 310 303 294 296 301 305
176 182 179 190 192 179 195 202 182 149 134 128 124 119 113 106 104 103 99 97 98 96 95 93 91 93 97 98 88 65 50 58 47 344 320 306 306 302 298 292 293 302 291
175 177 187 187 186 193 202 201 184 163 154 144 128 119 112 106 107 101 99 100 97 96 95 91 91 87 84 76 64 45 31 11 351 329 309 302 293 293 299 300 293 291 293
191 190 183 187 205 206 207 193 173 159 147 137 128 123 117 112 105 103 101 103 108 105 99 89 81 73 53 40 23 3 336 322 314 309 305 306 302 301 297 289 282 283 287
186 188 190 199 202 196 185 170 157 147 143 136 133 126 119 114 112 112 112 108 101 93 87 75 55 28 358 346 338 339 334 328 315 306 302 298 305 302 301 298 299 304 312
194 193 196 191 187 180 170 162 151 146 142 140 134 129 124 121 121 122 118 115 106 95 71 35 4 346 336 332 330 328 327 324 317 309 307 306 307 309 310 318 317 304 302
193 184 186 190 175 165 162 160 148 145 145 143 141 135 134 134 133 130 127 121 116 87 9 350 336 330 332 332 335 334 333 331 330 318 315 316 314 311 300 293 301 311 311
200 191 189 185 175 168 161 158 154 152 153 156 150 147 147 147 146 148 149 154 102 356 321 324 322 318 312 307 316 316 314 310 310 315 311 312 308 305 307 309 310 310 308
200 188 183 178 173 167 165 164 161 160 163 162 160 160 160 159 158 160 168 186 304 326 325 323 321 318 312 320 322 319 320 318 315 311 307 298 292 293 298 304 304 304 306